www.pogodaiklimat.ru

Погода и климат >> Архив погоды >> Австралия >> Северная территория >> Раббит Флат


ПОГОДА в Раббит Флат

  • Прогноз погоды в Раббит Флат
  • Монитор погоды в Раббит Флат

АРХИВ ПОГОДЫ в Раббит Флат

Время (UTC), дата Ветер
(напр.,м/с)
 
Видим.   Явления Облачность Т
(С)
Тd
(С)
f
(%)
Тe
(С)
Тes
(С)
Комфортность P
(гПа)
Po
(гПа)
Тmin
(С)
Tmax
(С)
R
(мм)
R24
(мм)
S
(см)
08 12.07 ЮВ 4 н/о н/о +25.7 -6.9 11 +23 +23 комфорт 1019.4 979.7
09 12.07 ЮВ 4 н/о н/о +23.6 -7.4 12 +21 +21 комфорт 1019.7 980.0
12 12.07 Ю 3 н/о н/о +16.6 -7.1 19 +17 +17 1021.9 982.1
14 12.07 Ю 3 н/о н/о +13.7 -6.5 24 +13 +13 1022.6 982.8 +28.3
15 12.07 ЮВ 3 н/о н/о +13.8 -7.5 22 +13 +13 1022.5 982.7
17 12.07 ЮВ 2 н/о н/о +9.9 -7.7 28 +9 +9 1022.0 982.2
18 12.07 ЮВ 2 н/о н/о +8.4 -9.5 27 +7 +7 1022.1 982.3
20 12.07 Ю 3 н/о н/о +8.4 -8.1 30 +7 +7 1023.2 983.4
21 12.07 ЮВ 4 н/о н/о +10.2 -7.0 29 +8 +8 1023.4 983.6
23 12.07 В 5 н/о н/о +16.5 -4.1 24 +16 +16 1024.9 985.0
00 13.07 В 7 н/о н/о +18.3 -3.8 22 +18 +18 1025.1 985.2
03 13.07 В 7 н/о н/о +24.3 -5.8 13 +22 +22 комфорт 1023.5 983.7
06 13.07 В 7 н/о н/о +26.6 -6.2 11 +24 +24 комфорт 1020.7 981.0
09 13.07 ЮВ 5 н/о н/о +23.3 -7.7 12 +21 +21 комфорт 1020.9 981.2
11 13.07 ЮВ 3 н/о н/о +15.3 -5.7 23 +15 +15 1022.5 982.7
12 13.07 ЮВ 4 н/о н/о +14.8 -5.5 24 +14 +14 1022.7 982.9
14 13.07 ЮВ 4 н/о н/о +13.6 -3.2 31 +13 +13 1023.1 983.3 +27.0
15 13.07 ЮВ 4 н/о н/о +14.9 -2.5 30 +14 +14 1023.0 983.2
17 13.07 ЮВ 4 н/о н/о +13.9 -1.7 34 +13 +13 1023.0 983.2
18 13.07 ЮВ 4 н/о н/о +13.3 -1.1 37 +12 +12 1023.2 983.4
20 13.07 В 4 н/о н/о +11.8 +0.3 45 +10 +10 1024.5 984.6
21 13.07 ЮВ 4 н/о н/о +11.4 +0.8 48 +10 +10 1024.9 985.0
23 13.07 В 8 н/о н/о +13.4 +1.7 45 +11 +11 1027.0 987.0
00 14.07 В 8 н/о н/о +14.0 +1.3 42 +12 +12 1027.2 987.3
02 14.07 В 7 н/о н/о +17.8 -1.4 27 +17 +17 1025.9 986.0 +9.1
03 14.07 В 7 н/о н/о +18.8 -2.2 24 +18 +18 1025.2 985.3
05 14.07 ЮВ 5 н/о н/о +21.2 -6.4 15 +20 +20 1022.0 982.2
06 14.07 В 7 н/о н/о +21.8 -6.8 14 +20 +20 1021.7 981.9
08 14.07 ЮВ 6 н/о н/о +20.8 -8.6 13 +20 +20 1021.6 981.8
09 14.07 В 4 н/о н/о +19.6 -9.5 13 +19 +19 1022.0 982.2
11 14.07 ЮВ 3 н/о н/о +12.0 -8.5 23 +11 +11 1023.2 983.4
12 14.07 ЮВ 3 н/о н/о +11.3 -8.0 25 +10 +10 1023.3 983.5
14 14.07 В 3 н/о н/о +10.0 -8.1 27 +9 +9 1023.2 983.4 +22.9
15 14.07 ЮВ 3 н/о н/о +8.2 -8.7 29 +6 +6 1023.2 983.4
17 14.07 ЮВ 3 н/о н/о +6.6 -7.7 35 +4 +4 1023.7 983.9
18 14.07 ЮВ 3 н/о н/о +6.2 -8.1 35 +4 +4 1023.8 984.0
20 14.07 ЮВ 4 н/о н/о +5.3 -7.2 40 +2 +2 1024.7 984.8
21 14.07 ЮВ 3 н/о н/о +5.5 -6.4 42 +3 +3 1025.0 985.1
23 14.07 ЮВ 3 н/о н/о +10.5 -5.5 32 +9 +9 1026.2 986.3
00 15.07 В 5 н/о н/о +12.9 -3.8 31 +11 +11 1026.2 986.3
02 15.07 В 7 н/о н/о +17.5 -5.0 21 +17 +17 1024.4 984.5 +2.9
03 15.07 В 6 н/о н/о +18.5 -5.5 19 +18 +18 1023.7 983.9
05 15.07 В 7 н/о н/о +21.8 -8.8 12 +20 +20 1020.3 980.6
06 15.07 В 7 н/о н/о +22.3 -9.5 11 +20 +20 1019.9 980.2
08 15.07 В 6 н/о н/о +21.5 -10.2 11 +20 +20 1019.8 980.1
09 15.07 В 4 н/о н/о +20.1 -10.2 12 +20 +20 1020.2 980.5
12 15.07 ЮВ 3 н/о н/о +12.1 -8.9 22 +11 +11 1022.0 982.2
14 15.07 ЮВ 2 н/о н/о +6.8 -11.8 25 +6 +6 1022.5 982.7 +23.2
15 15.07 В 3 н/о н/о +6.6 -10.1 29 +5 +5 1022.6 982.8
17 15.07 В 4 н/о н/о +8.9 -8.1 29 +7 +7 1022.6 982.8
18 15.07 В 4 н/о н/о +9.1 -7.5 30 +7 +7 1022.4 982.6
20 15.07 В 3 н/о н/о +7.4 -6.3 37 +6 +6 1022.7 982.9
21 15.07 ЮВ 2 н/о н/о +6.3 -6.0 41 +5 +5 1022.9 983.1
23 15.07 В 4 н/о н/о +12.2 -2.8 35 +11 +11 1024.4 984.5
00 16.07 В 8 н/о н/о +14.0 -0.8 36 +12 +12 1024.3 984.5
02 16.07 В 6 н/о н/о +18.8 -2.7 23 +18 +18 1023.2 983.4 +4.6
03 16.07 В 5 н/о н/о +19.6 -4.6 19 +19 +19 1022.7 982.9
05 16.07 В 5 н/о н/о +22.0 -6.7 14 +20 +20 1020.2 980.5
06 16.07 В 5 н/о н/о +22.2 -7.5 13 +20 +20 1020.0 980.3
08 16.07 ЮВ 5 н/о н/о +21.5 -8.0 13 +20 +20 1020.0 980.3
09 16.07 ЮВ 3 н/о н/о +19.6 -7.7 15 +20 +20 1020.1 980.4
11 16.07 ЮВ 2 н/о н/о +12.1 -8.9 22 +12 +12 1021.0 981.3
12 16.07 ЮВ 3 н/о н/о +11.5 -8.3 24 +10 +10 1021.2 981.5
14 16.07 В 2 н/о н/о +7.2 -10.1 28 +6 +6 1021.3 981.5 +23.1
15 16.07 В 3 н/о н/о +7.7 -9.2 29 +6 +6 1020.8 981.1
17 16.07 ЮВ 3 н/о н/о +5.9 -8.7 34 +4 +4 1020.4 980.7
18 16.07 ЮВ 3 н/о н/о +6.6 -8.9 32 +4 +4 1020.3 980.6
20 16.07 ЮВ 3 н/о н/о +5.9 -8.4 35 +3 +3 1020.8 981.1
21 16.07 ЮВ 3 н/о н/о +5.5 -8.0 37 +3 +3 1021.0 981.3
23 16.07 В 7 н/о н/о +13.6 +0.6 41 +12 +12 1022.2 982.4
00 17.07 В 8 н/о н/о +14.9 +1.8 41 +13 +13 1022.4 982.6
03 17.07 В 7 н/о н/о +21.0 +1.3 27 +21 +21 комфорт 1020.6 980.9
06 17.07 В 4 н/о н/о +24.4 -3.0 16 +23 +23 комфорт 1017.7 978.1
08 17.07 В 4 н/о н/о +23.3 -4.8 15 +21 +21 комфорт 1017.5 977.9
09 17.07 В 3 н/о н/о +21.4 -3.9 18 +20 +20 1017.7 978.1
11 17.07 В 2 н/о н/о +13.6 -3.2 31 +13 +13 1018.9 979.2
12 17.07 В 2 н/о н/о +12.7 -4.0 31 +12 +12 1019.0 979.3
14 17.07 В 3 н/о н/о +10.3 -3.7 37 +9 +9 1019.4 979.7 +25.4
15 17.07 В 3 н/о н/о +10.2 -3.8 37 +9 +9 1019.2 979.5
17 17.07 В 3 н/о н/о +8.9 -1.8 47 +7 +7 1019.2 979.5
18 17.07 В 3 н/о н/о +9.6 -2.3 43 +8 +8 1019.2 979.5
20 17.07 В 3 н/о н/о +8.2 -2.4 47 +6 +6 1019.2 979.5
21 17.07 В 4 н/о н/о +8.4 -2.0 48 +6 +6 1019.5 979.8
23 17.07 В 4 н/о н/о +15.1 -0.2 35 +14 +14 1020.5 980.8
00 18.07 В 6 н/о н/о +16.8 -0.4 31 +16 +16 1020.7 981.0
02 18.07 СВ 7 н/о н/о +23.1 -2.5 18 +22 +22 комфорт 1019.5 979.8 +6.4
03 18.07 СВ 6 н/о н/о +24.0 -3.3 16 +22 +22 комфорт 1018.9 979.2
05 18.07 СВ 3 н/о н/о +25.9 -5.6 12 +23 +23 комфорт 1016.7 977.1
06 18.07 В 3 н/о н/о +26.3 -5.3 12 +24 +24 комфорт 1016.1 976.6
09 18.07 СВ 3 н/о н/о +23.2 -5.7 14 +21 +21 комфорт 1016.3 976.8
12 18.07 В 2 н/о н/о +14.4 -4.8 26 +14 +14 1017.7 978.1
14 18.07 В 1 н/о н/о +9.0 -7.6 30 +9 +9 1018.1 978.5 +27.2
15 18.07 ЮВ 2 н/о н/о +9.0 -6.8 32 +8 +8 1018.1 978.5
17 18.07 штиль 0 н/о н/о +7.3 -7.5 34 +7 +7 1017.9 978.3
18 18.07 штиль 0 н/о н/о +6.9 -6.4 38 +7 +7 1017.8 978.2
20 18.07 штиль 0 н/о н/о +4.8 -7.6 40 +5 +5 1017.8 978.2
21 18.07 ЮВ 2 н/о н/о +5.1 -6.4 43 +4 +4 1018.0 978.4
23 18.07 СВ 1 н/о н/о +15.4 -4.0 26 +16 +16 1019.3 979.6
00 19.07 В 3 н/о н/о +18.6 -3.5 22 +19 +19 1019.5 979.8
03 19.07 СВ 6 н/о н/о +24.9 -5.4 13 +23 +23 комфорт 1018.0 978.4

 

Местоположение метеостанции Раббит Флат (Северная территория, Австралия): широта -20.18 долгота 130.02 высота над уровнем моря 339 м.

В архиве по умолчанию представлена погода в Раббит Флат за последнюю неделю. Архивные данные за месяц целиком и за предыдущие месяцы, начиная с января 2011 года, Вы можете получить, выбрав интересующий диапазон дат из раскрывающегося списка и нажав кнопку "Ввод!".


*Определитесь, кто Вы:
робот инопланетянин человек

Внимание! Время в таблицах - всемирное. Для получения местного времени необходимо прибавить поправку, которая равна 9.5 ч.

Смотрите также архив погоды в соседних городах и на ближайших метеорологических станциях:

Погода в Ладжаману (Северная территория, Австралия) (216 км)
Погода в Холс Крик (Западная Австралия, Австралия) (329 км)
Погода в Кинторе (Северная территория, Австралия) (350 км)
Погода в Аэропорту Аргайл (Западная Австралия, Австралия) (428 км)
Погода в Виктория-Ривер (Северная территория, Австралия) (433 км)
Погода в Теннант-Крике (Северная территория, Австралия) (439 км)
Погода на Виноградной ферма (Северная территория, Австралия) (451 км)
Погода в Кунунарре (Западная Австралия, Австралия) (509 км)
Погода в Фицрой-Кроссинге (Западная Австралия, Австралия) (519 км)
Погода на Базе ВВС Delamere Weapons Range (Северная территория, Австралия) (532 км)

Пояснения к столбцам:

Ветер - указаны скорость ветра в м/с - средняя за 10 мин, порывы в срок и между сроками (в фигурных скобках) и направление, откуда дует ветер: С - северный, СВ - северо-восточный, В - восточный, ЮВ - юго-восточный, Ю - южный, ЮЗ - юго-западный, З - западный, СЗ - северо-западный.
Видимость - горизонтальная дальность видимости в метрах или километрах. При видимости от 1 до 10 км при отсутствии осадков обычно наблюдается дымка, при ухудшении видимости до 1 км и менее - туман. В сухую погоду видимость может ухудшаться дымом, пылью или мглою.
Явления - указаны атмосферные явления, наблюдавшиеся в срок или в последний час перед сроком; фигурными скобками обозначены явления, наблюдавшиеся между сроками (за 1-3 часа до срока); квадратными скобками обозначены град или гололедные отложения с указанием их диаметра в мм.
Облачность - указаны через наклонную черту общая и нижняя облачность в баллах и высота нижней границы облаков в метрах; квадратными скобками обозначены формы облаков: Ci - перистые, Cs - перисто-слоистые, Cc - перисто-кучевые, Ac - высококучевые, As - высокослоистые, Sc - слоисто-кучевые, Ns - слоисто-дождевые, Cu - кучевые, Cb - кучево-дождевые. Подробнее классификацию облаков см. в Атласе облаков (PDF).
T - Температура воздуха - температура, измеренная на высоте 2 м над землей.
Td - Температура точки росы - температура, при понижении до которой содержащийся в воздухе водяной пар достигнет насыщения.
f - Относительная влажность воздуха - влажноcть воздуха, измеренная на высоте 2 м над землей.
Te - Эффективная температура - температура, которую ощущает одетый по сезону человек в тени. Характеристика душности погоды. При расчете учитывается влияние влажности воздуха и скорости ветра на теплоощущения человека.
Tes - Эффективная температура на солнце - температура, которую ощущает человек, с поправкой на солнечный нагрев. Характеристика знойности погоды. Зависит от высоты солнца над горизонтом, облачности и скорости ветра. Ночью, в пасмурную погоду, а также при ветре 12 м/с и более поправка равна нулю.
P - Атмосферное давление - приведенное к уровню моря атмосферное давление.
Po - Атмосферное давление - измеренное на уровне метеостанции атмосферное давление.
Tmin - Минимальная температура - минимум температуры воздуха на высоте 2 м над землей.
Tmax - Максимальная температура - максимум температуры воздуха на высоте 2 м над землей.
R - Количество осадков - Количество выпавших осадков за период времени, мм. При наведении курсора мыши на число - период времени, за который выпало указанное количество осадков.
R24 - Количество осадков - Количество выпавших осадков за 24 часа, мм.
S - Снежный покров - Высота снежного покрова, см. При наведении курсора мыши на число - состояние снежного покрова и степень покрытия местности в баллах.